Location: Brownlee
(50.7397°N, 106.0159°W)
Time: 08:16:18
(UTC+00:00)

Envisat - Pass Details

Date: 10 December 2022
Orbit: 763 x 765 km, 98.2° (Epoch: 04 February)

Event Time Altitude Azimuth Distance (km) Brightness Sun altitude
Rises 11:37:44 0° 13° (NNE) 3,247 6.4 -29.9°
Reaches altitude 10° 11:40:03 10° 12° (NNE) 2,316 5.6 -29.6°
Enters shadow 11:41:56 23° 11° (N) 1,592 4.7 -29.3°
